Simultaneous Nadir Overpasses (SNOs) Predictions

Prediction of SNOs between GOES-16 and NOAA-21 Satellite Orbit:

Table of predicted SNOs for the next 14.0 days since TLE Epoch: 4/26/2024
Index Date Time (GOES-16) GOES-16 Lat,Lon NOAA-21 Lat,Lon Distance(km) Time Diff (sec)
1 04/27/2024 18:28:42 0.03, -75.21 -0.12, -75.80 67.19 80
2 04/28/2024 18:09:57 0.03, -75.21 0.94, -71.27 449.91 80
3 04/30/2024 06:31:44 -0.02, -75.21 0.28, -76.52 149.50 80
4 05/01/2024 06:10:18 -0.02, -75.22 -0.72, -71.99 367.82 80
5 05/02/2024 18:32:14 0.01, -75.23 -0.45, -77.28 234.26 80
6 05/03/2024 18:16:08 0.01, -75.24 0.56, -72.75 283.71 80
7 05/05/2024 06:37:54 -0.01, -75.25 0.63, -78.00 314.09 80
8 05/06/2024 06:16:29 -0.01, -75.26 -0.39, -73.47 204.16 80
9 05/07/2024 18:38:24 0.01, -75.28 -0.76, -78.77 396.97 80
10 05/08/2024 18:22:19 0.01, -75.30 0.27, -74.24 121.65 80
11 05/10/2024 06:44:05 -0.01, -75.32 0.91, -79.49 475.13 80
